Weather History for Mammoth, CA

Change the Weather History Date:

Saturday, September 14, 2013

  Actual Average Record
Temperature  
Mean Temperature 61 °F -  
Max Temperature 80 °F 69 °F 82 °F (2000)
Min Temperature 42 °F 53 °F 32 °F (2010)
Degree Days  
Heating Degree Days 4    
Growing Degree Days 11 (Base 50)    
Moisture  
Dew Point 38 °F    
Average Humidity 45    
Maximum Humidity 81    
Minimum Humidity 18    
Precipitation  
Precipitation 0.00 in - - ()
Sea Level Pressure  
Sea Level Pressure 30.12 in    
Wind  
Wind Speed 4 mph (West)    
Max Wind Speed 16 mph    
Max Gust Speed 18 mph    
Visibility 10 miles    
Events Rain    
Averages and records for this station are not official NWS values.
T = Trace of Precipitation, MM = Missing Value Source: NWS Daily Summary

Daily Weather History Graph

Daily Weather History Graph

Search for Another Location

Airport:

Trip Planner

Search our weather history database for the weather conditions in past years. The results will help you decide how hot, cold, wet, or windy it might be!

Date:

Astronomy

Sep. 14, 2013 Rise Set
Actual Time 6:36 AM PDT 7:04 PM PDT
Civil Twilight 6:10 AM PDT 7:30 PM PDT
Nautical Twilight 5:39 AM PDT 8:01 PM PDT
Astronomical Twilight 5:07 AM PDT 8:32 PM PDT
Moon 3:45 PM PDT (9/14) 1:18 AM PDT (9/14)
Length of Visible Light 13h 20m
Length of Day
12h 27m
Waxing Gibbous, 73% of the Moon is Illuminated
Sep 14
Waxing Gibbous
Sep 19
Full
Sep 26
Last Quarter
Oct 4
New
Oct 11
First Quarter

Hourly Weather History & Observations

Time (PDT) Temp. Windchill Dew Point Humidity Pressure Visibility Wind Dir Wind Speed Gust Speed Precip Events Conditions
12:15 AM 55.4 °F - 42.8 °F 63% 30.17 in 10.0 mi North 3.5 mph - N/A   Clear
12:35 AM 53.6 °F - 41.0 °F 62% 30.16 in 10.0 mi West 3.5 mph - N/A   Clear
12:55 AM 55.4 °F - 42.8 °F 63% 30.16 in 10.0 mi West 8.1 mph - N/A   Clear
1:15 AM 53.6 °F - 41.0 °F 62% 30.15 in 10.0 mi WNW 8.1 mph - N/A   Clear
1:35 AM 53.6 °F - 41.0 °F 62% 30.15 in 10.0 mi WSW 8.1 mph - N/A   Clear
1:55 AM 53.6 °F - 41.0 °F 62% 30.15 in 10.0 mi West 4.6 mph - N/A   Clear
2:15 AM 51.8 °F - 41.0 °F 67% 30.15 in 10.0 mi Calm Calm - N/A   Clear
2:35 AM 50.0 °F - 39.2 °F 66% 30.15 in 10.0 mi Calm Calm - N/A   Clear
2:55 AM 50.0 °F - 41.0 °F 71% 30.15 in 10.0 mi Calm Calm - N/A   Clear
3:15 AM 48.2 °F - 39.2 °F 71% 30.14 in 10.0 mi SSW 8.1 mph - N/A   Clear
3:35 AM 46.4 °F - 39.2 °F 76% 30.14 in 10.0 mi Calm Calm - N/A   Clear
3:55 AM 46.4 °F 43.5 °F 39.2 °F 76% 30.14 in 10.0 mi North 5.8 mph - N/A   Clear
4:15 AM 46.4 °F - 39.2 °F 76% 30.14 in 10.0 mi Calm Calm - N/A   Clear
4:35 AM 46.4 °F - 39.2 °F 76% 30.14 in 10.0 mi Calm Calm - N/A   Clear
4:55 AM 46.4 °F - 39.2 °F 76% 30.14 in 10.0 mi Calm Calm - N/A   Clear
5:15 AM 48.2 °F - 39.2 °F 71% 30.14 in 10.0 mi Calm Calm - N/A   Clear
5:35 AM 46.4 °F 45.2 °F 39.2 °F 76% 30.14 in 10.0 mi NNW 3.5 mph - N/A   Clear
5:55 AM 42.8 °F - 37.4 °F 81% 30.14 in 10.0 mi Calm Calm - N/A   Clear
6:15 AM 44.6 °F - 39.2 °F 81% 30.14 in 10.0 mi Calm Calm - N/A   Clear
6:55 AM 42.8 °F 39.3 °F 37.4 °F 81% 30.15 in 10.0 mi North 5.8 mph - N/A   Clear
7:15 AM 44.6 °F - 39.2 °F 81% 30.15 in 10.0 mi Calm Calm - N/A   Clear
7:35 AM 46.4 °F - 39.2 °F 76% 30.15 in 10.0 mi Calm Calm - N/A   Clear
7:55 AM 50.0 °F - 39.2 °F 66% 30.15 in 10.0 mi Calm Calm - N/A   Clear
8:15 AM 53.6 °F - 41.0 °F 62% 30.15 in 10.0 mi Calm Calm - N/A   Clear
8:35 AM 57.2 °F - 41.0 °F 55% 30.16 in 10.0 mi Calm Calm - N/A   Clear
8:55 AM 59.0 °F - 41.0 °F 51% 30.16 in 10.0 mi Calm Calm - N/A   Clear
9:15 AM 62.6 °F - 42.8 °F 48% 30.16 in 10.0 mi SE 3.5 mph - N/A   Clear
9:35 AM 62.6 °F - 44.6 °F 52% 30.16 in 10.0 mi SSE 4.6 mph - N/A   Clear
9:55 AM 66.2 °F - 42.8 °F 43% 30.16 in 10.0 mi SSE 6.9 mph - N/A   Clear
10:15 AM 68.0 °F - 41.0 °F 37% 30.16 in 10.0 mi South 5.8 mph - N/A   Clear
10:35 AM 71.6 °F - 39.2 °F 31% 30.15 in 10.0 mi SSE 6.9 mph - N/A   Clear
10:55 AM 73.4 °F - 37.4 °F 27% 30.15 in 10.0 mi South 5.8 mph - N/A   Clear
11:15 AM 73.4 °F - 39.2 °F 29% 30.14 in 10.0 mi South 8.1 mph - N/A   Clear
11:35 AM 73.4 °F - 37.4 °F 27% 30.14 in 10.0 mi SSE 9.2 mph - N/A   Clear
11:55 AM 75.2 °F - 37.4 °F 25% 30.13 in 10.0 mi Calm Calm - N/A   Mostly Cloudy
12:15 PM 73.4 °F - 37.4 °F 27% 30.12 in 10.0 mi ESE 6.9 mph - N/A   Overcast
12:35 PM 73.4 °F - 35.6 °F 25% 30.12 in 10.0 mi Calm Calm - N/A   Overcast
12:55 PM 78.8 °F - 35.6 °F 21% 30.11 in 10.0 mi North 3.5 mph - N/A   Overcast
1:15 PM 77.0 °F - 33.8 °F 21% 30.11 in 10.0 mi NNE 5.8 mph - N/A   Overcast
1:35 PM 75.2 °F - 33.8 °F 22% 30.10 in 10.0 mi Calm Calm - N/A   Overcast
1:55 PM 75.2 °F - 32.0 °F 21% 30.09 in 10.0 mi Calm Calm - N/A   Mostly Cloudy
2:15 PM 75.2 °F - 33.8 °F 22% 30.08 in 10.0 mi SE 5.8 mph - N/A   Overcast
2:35 PM 78.8 °F - 33.8 °F 20% 30.08 in 10.0 mi SSE 5.8 mph - N/A   Overcast
2:55 PM 80.6 °F - 33.8 °F 18% 30.08 in 10.0 mi East 6.9 mph - N/A   Overcast
3:15 PM 78.8 °F - 32.0 °F 18% 30.07 in 10.0 mi Calm Calm - N/A   Overcast
3:35 PM 77.0 °F - 32.0 °F 19% 30.07 in 10.0 mi Calm Calm - N/A   Overcast
3:55 PM 75.2 °F - 32.0 °F 21% 30.07 in 10.0 mi ESE 3.5 mph - N/A   Overcast
4:15 PM 77.0 °F - 33.8 °F 21% 30.06 in 10.0 mi ESE 6.9 mph - N/A   Overcast
4:35 PM 73.4 °F - 39.2 °F 29% 30.06 in 10.0 mi East 5.8 mph - N/A Rain Light Rain
4:55 PM 71.6 °F - 39.2 °F 31% 30.06 in 10.0 mi SSW 6.9 mph - N/A   Mostly Cloudy
5:15 PM 77.0 °F - 35.6 °F 22% 30.06 in 10.0 mi WNW 9.2 mph - N/A   Mostly Cloudy
5:35 PM 75.2 °F - 35.6 °F 24% 30.06 in 10.0 mi West 12.7 mph - N/A   Overcast
5:55 PM 73.4 °F - 35.6 °F 25% 30.07 in 10.0 mi West 16.1 mph - N/A   Overcast
6:15 PM 73.4 °F - 35.6 °F 25% 30.07 in 10.0 mi WNW 12.7 mph 18.4 mph N/A   Mostly Cloudy
6:35 PM 73.4 °F - 35.6 °F 25% 30.07 in 10.0 mi WNW 10.4 mph 17.3 mph N/A   Clear
6:55 PM 71.6 °F - 35.6 °F 27% 30.07 in 10.0 mi WNW 11.5 mph - N/A   Scattered Clouds
7:15 PM 69.8 °F - 35.6 °F 28% 30.07 in 10.0 mi WNW 10.4 mph - N/A   Scattered Clouds
7:35 PM 68.0 °F - 37.4 °F 33% 30.08 in 10.0 mi West 4.6 mph - N/A   Clear
7:55 PM 68.0 °F - 37.4 °F 33% 30.09 in 10.0 mi NNW 6.9 mph - N/A   Scattered Clouds
8:15 PM 64.4 °F - 37.4 °F 37% 30.10 in 10.0 mi Calm Calm - N/A   Mostly Cloudy
8:35 PM 66.2 °F - 39.2 °F 37% 30.11 in 10.0 mi WNW 12.7 mph - N/A   Overcast
8:55 PM 66.2 °F - 37.4 °F 35% 30.11 in 10.0 mi WSW 6.9 mph - N/A   Overcast
9:15 PM 64.4 °F - 37.4 °F 37% 30.11 in 10.0 mi WNW 11.5 mph - N/A   Scattered Clouds
9:35 PM 64.4 °F - 35.6 °F 34% 30.11 in 10.0 mi West 4.6 mph - N/A   Mostly Cloudy
9:55 PM 62.6 °F - 35.6 °F 37% 30.12 in 10.0 mi WNW 6.9 mph - N/A   Overcast
10:15 PM 60.8 °F - 33.8 °F 36% 30.12 in 10.0 mi Calm Calm - N/A   Mostly Cloudy
10:35 PM 60.8 °F - 33.8 °F 36% 30.12 in 10.0 mi Calm Calm - N/A   Mostly Cloudy
10:55 PM 59.0 °F - 37.4 °F 45% 30.12 in 10.0 mi Calm Calm - N/A   Overcast
11:15 PM 59.0 °F - 37.4 °F 45% 30.12 in 10.0 mi Calm Calm - N/A   Overcast
11:35 PM 57.2 °F - 37.4 °F 48% 30.12 in 10.0 mi Calm Calm - N/A   Scattered Clouds
11:55 PM 55.4 °F - 37.4 °F 51% 30.12 in 10.0 mi Calm Calm - N/A   Scattered Clouds